#timestamp,LO_Frequency,Hit 
1499799615.2,286047003.5,N
1499799635.0,286047003.0,N
1499799635.9,286047003.0,N
1499799655.8,286047005.1,N
1499799675.6,286047006.8,N
1499799695.4,286047006.2,N
1499799715.3,286047007.1,N
1499799735.1,286047005.7,N
1499799736.0,286047005.7,N
1499799755.8,286047004.6,N
1499799775.7,286047006.5,N
1499799795.5,286047007.3,N
1499799815.3,286047004.5,N
1499799835.1,286047004.5,N
1499799855.9,286047005.0,N
1499799875.7,286047005.9,N
1499799895.5,286047003.8,N
1499799915.4,286047004.5,N
1499799935.2,286047004.6,N
1499799955.0,286047003.9,N
1499799955.9,286047003.9,N
1499799975.8,286047001.5,N
1499799995.6,286047001.7,N
1499800015.4,286047001.8,N
1499800035.3,286047001.5,N
1499800055.1,286047003.1,N
1499800075.9,286047001.9,N
1499800095.7,286047002.8,N
1499800115.5,286047001.4,N
1499800135.4,286047004.4,N
1499800155.2,286047001.6,N
1499800175.0,286047004.3,N
1499800175.9,286047004.3,N
1499800195.8,286047004.2,N
1499800215.6,286047004.0,N
1499800235.4,286047004.0,N
1499800255.2,286047001.6,N
1499800275.1,286046999.7,N
1499800295.6,286047000.5,N
1499800315.4,286046999.3,N
1499800335.3,286046998.2,N
1499800355.1,286047000.7,N
1499800356.0,286047000.7,N
1499800375.8,286047000.4,N
1499800395.7,286046996.9,N
1499800415.5,286046999.4,N
1499800435.3,286046998.5,N
1499800455.1,286046999.4,N
1499800475.9,286046997.0,N
1499800495.7,286046999.0,N
1499800515.5,286046997.7,N
1499800535.4,286047000.9,N
1499800555.2,286047001.5,N
1499800575.0,286047000.2,N
1499800575.9,286047000.2,N
1499800595.8,286047000.1,N
1499800615.6,286046998.6,N
1499800635.4,286047001.1,N
1499800655.3,286047001.8,N
1499800675.1,286047002.6,N
1499800676.0,286047002.6,N
1499800695.8,286047000.5,N
1499800715.6,286047002.8,N
1499800735.5,286047001.3,N
1499800755.3,286047004.4,N
1499800775.1,286047002.4,N
1499800795.9,286047000.3,N
1499800815.7,286047001.2,N
1499800835.5,286046998.5,N
1499800855.4,286046999.4,N
1499800875.2,286046999.5,N
1499800895.0,286046999.0,N
1499800895.9,286046999.0,N
1499800915.8,286046998.5,N
1499800935.6,286046998.7,N
1499800955.4,286046998.7,N
1499800975.2,286046998.6,N
1499800995.1,286046998.8,N
1499800996.0,286046998.8,N
1499801015.8,286047000.2,N
1499801035.6,286047000.3,N
1499801055.5,286047000.4,N
1499801075.3,286047001.9,N
1499801095.1,286047000.7,N
1499801115.9,286047000.2,N
1499801135.7,286047000.9,N
1499801155.5,286046999.8,N
1499801175.9,286047000.5,N
1499801195.7,286047002.4,N
1499801215.6,286047001.4,N
1499801235.4,286047004.1,N
1499801255.2,286047002.5,N
1499801275.0,286047002.6,N
1499801276.0,286047002.6,N
1499801295.8,286047000.1,N
1499801315.6,286047001.8,N
1499801335.4,286047001.4,N
1499801355.3,286047002.1,N
1499801375.1,286047001.3,N
1499801395.8,286047003.2,N
1499801415.7,286047004.3,N
1499801435.5,286047001.5,N
1499801455.3,286047002.4,N
1499801475.2,286047000.2,N
1499801495.9,286046999.8,N
1499801515.7,286046998.1,N
1499801535.5,286046998.5,N
1499801555.4,286047000.7,N
1499801575.2,286046996.7,N
1499801595.0,286046999.5,N
1499801595.9,286046999.5,N
1499801615.8,286047001.1,N
1499801635.6,286046998.6,N
1499801655.4,286046998.9,N
1499801675.3,286046996.5,N
1499801695.1,286046998.7,N
1499801696.0,286046998.7,N
1499801715.8,286046998.6,N
1499801735.7,286047000.7,N
1499801755.5,286047002.5,N
1499801775.3,286047000.1,N
1499801795.2,286047004.1,N
1499801815.9,286047003.8,N
1499801835.1,286047004.0,N
1499801855.9,286047003.6,N
1499801875.7,286047002.4,N
1499801895.5,286047001.4,N
1499801915.4,286046999.7,N
1499801935.2,286047000.6,N
1499801955.0,286047000.9,N
1499801955.9,286047000.9,N
1499801975.7,286047000.5,N
1499801995.6,286047001.0,N
1499802015.4,286046997.1,N
1499802035.2,286046999.0,N
1499802055.1,286047002.5,N
1499802056.0,286047002.5,N
1499802075.8,286046999.9,N
1499802095.6,286047000.4,N
1499802115.5,286047000.0,N
1499802135.3,286047004.1,N
1499802155.1,286047004.1,N
1499802175.9,286047002.8,N
1499802195.7,286046999.8,N
1499802215.5,286047000.9,N
1499802235.3,286047000.1,N
1499802255.2,286047000.0,N
1499802275.9,286046998.5,N
1499802295.7,286046998.7,N
1499802315.6,286047002.5,N
1499802335.4,286047001.7,N
1499802355.2,286047004.4,N
1499802375.1,286047000.4,N
1499802376.0,286047000.4,N
1499802395.8,286047000.8,N
1499802415.6,286047000.4,N
1499802435.4,286047002.6,N
1499802455.3,286047002.0,N
1499802475.1,286047003.2,N
1499802495.8,286047004.1,N
1499802515.7,286047005.2,N
1499802535.5,286047003.3,N
1499802555.3,286047001.3,N
1499802575.2,286047006.0,Y
1499802595.9,286047002.0,N
1499802615.7,286046999.8,N
1499802635.6,286047001.3,N
1499802655.4,286047003.6,N
1499802675.2,286047004.3,N
1499802695.1,286047003.9,N
1499802696.0,286047003.9,N
1499802715.8,286047001.7,N
1499802735.6,286047002.1,N
1499802755.4,286047003.1,N
1499802775.3,286047003.2,N
1499802795.1,286047004.2,N
1499802815.4,286047003.5,N
1499802835.2,286047003.3,N
1499802855.1,286047005.5,N
1499802856.0,286047005.5,N
1499802875.8,286047005.4,N
1499802895.6,286047004.5,N
1499802915.5,286047004.8,N
1499802935.3,286047006.2,N
1499802955.1,286047007.0,Y
1499802975.9,286047001.3,N
1499802995.5,286047003.7,N
1499803015.3,286047004.0,N
1499803035.2,286047003.8,N
1499803055.0,286047002.9,N
1499803055.9,286047002.9,N
1499803075.7,286047005.7,N
1499803095.6,286047005.9,N
1499803115.4,286047006.8,Y
1499803135.2,286047001.3,N
1499803155.1,286047001.4,N
1499803156.0,286047001.4,N
1499803175.8,286047000.6,N
1499803195.6,286047001.5,N
